User: anonymous
Location: General Nathan Twining Observatory
(34.5931°N, 106.8201°W)
Time: 16:26:25
(UTC-06:00)
Language:

Iridium 2 - Orbit

View from above orbital plane
View from above orbital plane
View from above satellite
View from above satellite

Ground track
Ground track

The orbit data is extracted from the following two-line orbital elements,

1 25527U 98066A   14213.41107378  .00003910  00000-0  25210-3 0  3071
2 25527 085.5364 289.4622 0009006 347.8358 133.8914 15.07978069858945
Epoch (UTC): 01 August 2014 09:51:56
Eccentricity: 0.0009006
inclination: 85.5364°
perigee height: 536 km
apogee height: 548 km
right ascension of ascending node: 289.4622°
argument of perigee: 347.8358°
revolutions per day: 15.07978069
mean anomaly at epoch: 133.8914°
orbit number at epoch: 85894

The dashed part of the orbit path shows where the satellite is in the earth's shadow,  

DLR